Weather History for KBNO - December, 2013

Change the Weather History Date:

Saturday, December 21, 2013

  Actual Average Record
Temperature  
Mean Temperature 34 °F 23 °F  
Max Temperature 44 °F 33 °F 51 °F (1972)
Min Temperature 24 °F 13 °F -24 °F (1990)
Degree Days  
Heating Degree Days 31 42  
Month to date heating degree days 1042 850  
Since 1 July heating degree days 2965 2851  
Cooling Degree Days 0 0  
Month to date cooling degree days 0 0  
Year to date cooling degree days 372 215  
Moisture  
Dew Point 31 °F    
Average Humidity 81    
Maximum Humidity 100    
Minimum Humidity 62    
Precipitation  
Precipitation T in 0.06 in 0.35 in (1945)
Month to date precipitation 0.21 1.06  
Year to date precipitation 6.90 10.43  
Sea Level Pressure  
Sea Level Pressure 29.99 in    
Wind  
Wind Speed 9 mph (West)    
Max Wind Speed 28 mph    
Max Gust Speed 37 mph    
Visibility 10 miles    
Events Rain    
T = Trace of Precipitation, MM = Missing Value Source: NWS Daily Summary

Daily Weather History Graph

Daily Weather History Graph

Search for Another Location

Airport or City:

Trip Planner

Search our weather history database for the weather conditions in past years. The results will help you decide how hot, cold, wet, or windy it might be!

Date:

Astronomy

Dec. 21, 2013 Rise Set
Actual Time 7:26 AM PST 4:22 PM PST
Civil Twilight 6:53 AM PST 4:55 PM PST
Nautical Twilight 6:16 AM PST 5:31 PM PST
Astronomical Twilight 5:42 AM PST 6:06 PM PST
Moon 8:50 PM PST (12/21) 9:48 AM PST (12/21)
Length of Visible Light 10h 01m
Length of Day
8h 56m
Waning Gibbous, 83% of the Moon is Illuminated
Dec 21
Waning Gibbous
Dec 25
Last Quarter
Jan 1
New
Jan 7
First Quarter
Jan 15
Full

Hourly Weather History & Observations

Time (PST) Temp. Windchill Dew Point Humidity Pressure Visibility Wind Dir Wind Speed Gust Speed Precip Events Conditions
12:53 AM 36.0 °F 29.0 °F 33.1 °F 89% 29.85 in 10.0 mi SW 9.2 mph - N/A   Overcast
1:13 AM 37.0 °F 30.4 °F 34.0 °F 89% 29.78 in 10.0 mi SSW 9.2 mph - N/A   Overcast
1:53 AM 37.9 °F 31.5 °F 34.0 °F 86% 29.85 in 10.0 mi SW 9.2 mph - N/A   Overcast
2:53 AM 37.0 °F 28.9 °F 33.1 °F 86% 29.86 in 10.0 mi WSW 12.7 mph - N/A   Mostly Cloudy
3:08 AM 37.9 °F 30.0 °F 33.1 °F 83% 29.80 in 10.0 mi West 12.7 mph - N/A   Mostly Cloudy
3:20 AM 37.0 °F 28.5 °F 33.1 °F 86% 29.80 in 10.0 mi West 13.8 mph - N/A   Mostly Cloudy
3:53 AM 39.0 °F 29.9 °F 33.1 °F 79% 29.86 in 10.0 mi West 17.3 mph 28.8 mph N/A   Mostly Cloudy
4:49 AM 37.4 °F 25.6 °F 33.8 °F 87% 29.81 in 10.0 mi West 26.5 mph 33.4 mph N/A   Scattered Clouds
4:53 AM 39.0 °F 28.0 °F 33.1 °F 79% 29.87 in 10.0 mi West 25.3 mph 33.4 mph N/A   Partly Cloudy
5:53 AM 37.9 °F 27.3 °F 33.1 °F 83% 29.90 in 10.0 mi West 21.9 mph 32.2 mph N/A   Clear
6:53 AM 37.0 °F 29.8 °F 32.0 °F 82% 29.94 in 10.0 mi West 10.4 mph - N/A   Clear
7:35 AM 35.1 °F 26.4 °F 30.9 °F 85% 29.91 in 10.0 mi SE 12.7 mph - N/A   Mostly Cloudy
7:53 AM 37.0 °F 28.5 °F 32.0 °F 82% 29.99 in 10.0 mi SSE 13.8 mph - N/A   Overcast
8:53 AM 39.9 °F 31.4 °F 32.0 °F 73% 30.01 in 10.0 mi WNW 16.1 mph 19.6 mph N/A   Mostly Cloudy
9:12 AM 39.9 °F 32.1 °F 32.0 °F 73% 29.96 in 10.0 mi West 13.8 mph - N/A   Scattered Clouds
9:53 AM 42.1 °F 37.1 °F 32.0 °F 67% 30.03 in 10.0 mi West 8.1 mph - N/A   Scattered Clouds
10:02 AM 42.1 °F 39.2 °F 33.1 °F 70% 29.99 in 10.0 mi SW 4.6 mph - N/A   Mostly Cloudy
10:16 AM 43.0 °F 36.4 °F 32.0 °F 65% 29.99 in 10.0 mi West 12.7 mph - N/A   Overcast
10:33 AM 43.0 °F 36.0 °F 32.0 °F 65% 29.99 in 10.0 mi West 13.8 mph - N/A   Mostly Cloudy
10:53 AM 42.1 °F 35.2 °F 30.9 °F 65% 30.04 in 10.0 mi West 12.7 mph - N/A   Scattered Clouds
11:53 AM 42.1 °F 35.7 °F 30.9 °F 65% 30.03 in 10.0 mi West 11.5 mph - N/A   Overcast
12:53 PM 39.9 °F 35.1 °F 34.0 °F 79% 30.05 in 9.0 mi WNW 6.9 mph - 0.00 in Rain Light Rain
1:53 PM 42.1 °F 38.4 °F 33.1 °F 70% 30.04 in 10.0 mi West 5.8 mph - 0.00 in   Mostly Cloudy
2:53 PM 42.1 °F 36.6 °F 32.0 °F 67% 30.05 in 10.0 mi West 9.2 mph - N/A   Overcast
3:53 PM 41.0 °F 38.0 °F 32.0 °F 70% 30.06 in 10.0 mi NW 4.6 mph - N/A   Mostly Cloudy
4:53 PM 33.1 °F 30.0 °F 28.9 °F 85% 30.09 in 10.0 mi WNW 3.5 mph - N/A   Mostly Cloudy
5:53 PM 33.1 °F 28.7 °F 28.9 °F 85% 30.11 in 10.0 mi West 4.6 mph - N/A   Overcast
6:53 PM 28.0 °F 21.7 °F 26.1 °F 92% 30.13 in 10.0 mi West 5.8 mph - N/A   Clear
7:53 PM 28.0 °F 20.8 °F 27.0 °F 96% 30.13 in 10.0 mi WSW 6.9 mph - N/A   Mostly Cloudy
8:53 PM 27.0 °F 23.0 °F 26.1 °F 96% 30.15 in 10.0 mi NW 3.5 mph - N/A   Overcast
9:53 PM 26.1 °F - 24.1 °F 92% 30.16 in 10.0 mi Calm Calm - N/A   Partly Cloudy
10:53 PM 28.9 °F 25.2 °F 27.0 °F 92% 30.17 in 10.0 mi West 3.5 mph - N/A   Overcast
11:53 PM 28.9 °F 25.2 °F 28.0 °F 96% 30.17 in 10.0 mi WSW 3.5 mph - N/A   Overcast